[Iaude] MPEC N26: 2024 NE [a=1.42,e=0.39,i=23.4,H=24.0]
    mpec at cfa.harvard.edu 
    mpec at cfa.harvard.edu
       
    Wed Jul  3 06:58:30 EDT 2024
    
    
  
M.P.E.C. 2024-N26                                  Issued 2024 July 3, 10:56 UT
     The Minor Planet Electronic Circulars contain information on unusual
         minor planets, routine data on comets and natural satellites,
         and occasional editorial announcements.  They are published
    on behalf of Division F of the International Astronomical Union by the
          Minor Planet Center, Smithsonian Astrophysical Observatory,
                          Cambridge, MA 02138, U.S.A.
			  
             Prepared using the Tamkin Foundation Computer Network
                              MPC at CFA.HARVARD.EDU
            URL https://www.minorplanetcenter.net/    ISSN 1523-6714
                                    2024 NE                                     
Observations:
     K24N00E* C2024 07 01.94806618 27 18.166-11 32 45.38         17.99cVEN026M22
     K24N00E  C2024 07 01.95816018 27 13.063-11 25 32.70         17.91cVEN026M22
     K24N00E  C2024 07 01.96148118 27 11.381-11 23 10.32         17.99cVEN026M22
     K24N00E  C2024 07 01.98888418 26 57.595-11 03 25.42         18.04cVEN026M22
     K24N00E  C2024 07 02.07863018 26 13.356-09 57 57.67         17.92cVEN026M22
     K24N00E  C2024 07 02.07908118 26 13.066-09 57 38.41         17.86cVEN026M22
     K24N00E  C2024 07 02.07953318 26 12.893-09 57 18.32         18.02cVEN026M22
     K24N00E  C2024 07 02.07998318 26 12.684-09 56 58.49         18.02cVEN026M22
     K24N00E  C2024 07 02.08043318 26 12.454-09 56 37.36         18.00cVEN026M22
     K24N00E  C2024 07 02.08284318 26 30.18 -09 55 06.0                WEN026X09
     K24N00E  C2024 07 02.08567018 26 28.78 -09 53 02.1                WEN026X09
     K24N00E KB2024 07 02.11820518 26 06.129-09 29 51.17         18.9 VZEN026Y05
     K24N00E KB2024 07 02.12111118 26 04.616-09 27 42.06         18.4 VZEN026Y05
     K24N00E KB2024 07 02.12397718 26 03.114-09 25 34.80         18.7 VZEN026Y05
     K24N00E KB2024 07 02.16958 18 25 50.798-08 55 10.78         17.4 RZEN026H36
     K24N00E KB2024 07 02.17137 18 25 49.920-08 53 51.32         17.6 RZEN026H36
     K24N00E KB2024 07 02.17303 18 25 49.092-08 52 36.91         17.7 RZEN026H36
     K24N00E KC2024 07 02.48551318 23 26.892-04 47 17.34         17.9 GVEN026474
     K24N00E KC2024 07 02.48681918 23 26.201-04 46 15.38         18.0 GVEN026474
     K24N00E KC2024 07 02.48812718 23 25.531-04 45 13.46         18.0 GVEN026474
     K24N00E KC2024 07 02.48943318 23 24.830-04 44 11.65         18.1 GVEN026474
     K24N00E KC2024 07 02.80878 18 21 07.06 -00 26 46.0          17.5 GVEN026M21
     K24N00E  C2024 07 02.81680 18 21 01.06 -00 19 26.2          18.4 GVEN026M28
     K24N00E  C2024 07 02.81883 18 20 59.96 -00 17 48.8          18.2 GVEN026M28
     K24N00E KC2024 07 02.82008 18 21 00.99 -00 17 23.8          17.8 GVEN026M21
     K24N00E  C2024 07 02.82084 18 20 58.97 -00 16 12.1          17.9 GVEN026M28
     K24N00E KC2024 07 02.83173 18 20 54.70 -00 07 43.6          17.8 GVEN026M21
     K24N00E KC2024 07 02.86380 18 20 34.63 +00 14 16.7          17.9 GXEN026G02
     K24N00E 1C2024 07 02.86927 18 20 28.02 +00 19 01.7          17.7 GVEN026C40
     K24N00E KC2024 07 02.86970 18 20 31.52 +00 19 11.4          17.7 GXEN026G02
     K24N00E KB2024 07 02.87199 18 20 31.800+00 21 22.14         17.3 GVEN026L47
     K24N00E 1C2024 07 02.87404 18 20 25.43 +00 22 59.7          18.1 GVEN026C40
     K24N00E KB2024 07 02.87525 18 20 30.072+00 24 03.13         17.6 GVEN026L47
     K24N00E KC2024 07 02.87557 18 20 28.36 +00 24 04.4          17.8 GXEN026G02
     K24N00E KB2024 07 02.87852 18 20 28.339+00 26 47.47         17.5 GVEN026L47
     K24N00E 1C2024 07 02.87873 18 20 22.87 +00 26 55.5          17.8 GVEN026C40
     K24N00E KC2024 07 02.88842318 20 23.17 +00 35 04.2                VEN026104
     K24N00E KC2024 07 02.89143318 20 21.59 +00 37 35.4                VEN026104
     K24N00E KC2024 07 02.89444018 20 19.90 +00 40 06.4          18.1 GVEN026104
     K24N00E KB2024 07 02.91659 18 20 07.488+00 58 40.48               VEN026L47
     K24N00E KB2024 07 02.91735 18 20 10.073+00 59 32.10         17.0 GXEN026J57
     K24N00E KB2024 07 02.91866 18 20 06.389+01 00 24.30               VEN026L47
     K24N00E KB2024 07 02.91962 18 20 08.832+01 01 26.08         17.2 GXEN026J57
     K24N00E KB2024 07 02.92074 18 20 05.268+01 02 08.74               VEN026L47
     K24N00E KB2024 07 02.92168 18 20 07.704+01 03 10.08         16.8 GXEN026J57
     K24N00E KB2024 07 02.92281 18 20 04.109+01 03 53.35               VEN026L47
     K24N00E 1C2024 07 02.93977 18 19 49.46 +01 18 06.0          17.8 GVEN026C40
     K24N00E 1C2024 07 02.94409 18 19 47.10 +01 21 44.2          17.3 GVEN026C40
     K24N00E 1C2024 07 02.94841 18 19 44.75 +01 25 22.4          17.5 GVEN026C40
     K24N00E KB2024 07 02.95837718 19 47.22 +01 33 49.9          17.2 GXEN026958
     K24N00E KB2024 07 02.96002018 19 46.31 +01 35 13.3          17.8 GXEN026958
     K24N00E KB2024 07 02.96164518 19 45.42 +01 36 34.8          17.1 GXEN026958
     K24N00E |C2024 07 03.07235418 18 59.230+03 15 25.30         17.6 GVEN026807
     K24N00E |C2024 07 03.07324018 18 58.740+03 16 11.00         17.7 GVEN026807
     K24N00E |C2024 07 03.07413018 18 58.250+03 16 56.50         17.4 GVEN026807
     K24N00E |C2024 07 03.07502018 18 57.760+03 17 42.00         17.5 GVEN026807
     K24N00E |C2024 07 03.07591018 18 57.260+03 18 27.50         17.6 GVEN026807
     K24N00E KC2024 07 03.30900 18 16 54.52 +06 34 15.3          18.0 GVEN026U55
     K24N00E KC2024 07 03.31487 18 16 51.15 +06 39 21.9          18.0 GVEN026U55
     K24N00E KC2024 07 03.32061 18 16 47.86 +06 44 21.2          17.8 GVEN026U55
Observer details:
104 San Marcello Pistoiese.  Observers P. Bacci, M. Maestripieri.  Measurer P.
    Bacci.  0.60-m f/4.0 reflector + CCD.
474 Mount John Observatory, Lake Tekapo.  Observers A. C. Gilmore, P. M.
    Kilmartin.  Measurer P. M. Kilmartin.  0.6-m f/6.3 Reflector + CCD.
807 Cerro Tololo Observatory, La Serena.  Observers T. Linder, R. Holmes.
    0.61-m f/6.8 Ritchey-Chretien + CCD.
958 Observatoire de Dax.  Observer P. Dupouy.  0.50-m f/4.5 Reflector + CMO.
C40 Kuban State University Astrophysical Observatory.  Observers A. Ivanov, A.
    Barcov, V. Ivanov, V. Lysenko, N. Yakovenko, N. Ivanova, N. Gorbunov, G.
    Kurbatov, P. Shchukin, V. Roshchupko.  Measurer A. Ivanov.  0.51-m f/8
    reflector + CCD.
G02 KYSUCE Observatory, Kysucke Nove Mesto.  Observer M. Urbanik.  0.40-m
    f/6.8 Corrected Dall-Kirkham + CCD.
H36 Sandlot Observatory, Scranton.  Observer G. Hug.  0.56-m f/4.25 reflector
    + CMO.
J57 Centro Astronomico Alto Turia, Valencia.  Observer A. Fornas.  Measurers
    A. Fornas, G. Fornas, E. Arce, V. Mas.  0.43-m f/6.8 Reflector CDK + CMO.
L47 Osservatorio Astronomico, Piobbico.  Observers A. Teseo, A. Annamelia.
    Measurer A. Teseo.  0.28-m f/6.3 Schmidt-Cassegrain + CMO.
M21 Schiaparelli Southern Observatory, Hakos.  Observers A. Aletti, F.
    Bellini, L. Buzzi, G. Galli.  Measurer G. Galli.  0.36-m f/8.4 reflector +
    CCD.
M22 ATLAS South Africa, Sutherland.  Observers L. Denneau, R. Siverd, J.
    Tonry, H. Weiland.  Measurers L. Denneau, N. Erasmus, A. Fitzsimmons, J.
    Robinson, R. Siverd, J. Tonry, H. Weiland.  0.5-m Reflector + CCD.
M28 Lesedi Telescope-SAAO Observatory, Sutherland.  Observers N. Erasmus, S.
    Potter, C. van Gend, S. Chandra, H. Worters.  Measurers T. Ngwane, N.
    Erasmus.  1.0-m f/8 Reflector + CCD.
U55 Golden Ears Observatory, Maple Ridge.  Observer B. Kumar.  0.25-m f/8
    Ritchey Chretien + CCD.
X09 Deep Random Survey, Rio Hurtado.  Observers A. Schnabel, D. Ruhela.
    Measurer S. Deen.  0.43-m reflector + CMOS.
Y05 SONEAR Wykrota-CEAMIG, Serra da Piedade.  Observers C. Jacques, A.
    Caetano, E. Pimentel.  Measurer C. Jacques.  0.45-m f/2.9 reflector + CMO.
Orbital elements:
2024 NE                                                  Earth MOID = 0.0345 AU
Epoch 2024 Mar. 31.0 TT = JDT 2460400.5                 Veres                   
M 274.37133              (2000.0)            P               Q                  
n   0.58171087     Peri.   68.52242     +0.90109648     +0.18421854             
a   1.4212308      Node   279.11975     -0.35467217     +0.83393331             
e   0.3852037      Incl.   23.42616     +0.24946500     +0.52021031             
P   1.69           H   24.06          G   0.15           U   7                  
Residuals in seconds of arc
240701 M22  0.2+  0.5+    240702 474  0.0   0.4-    240702 J57  0.0   0.8+
240701 M22  0.1+  0.5-    240702 M21  0.2-  0.1-    240702 L47  0.3+  1.4-
240701 M22  0.0   1.0-    240702 M28 (1.2-  6.5+)   240702 J57  0.0   0.6+
240701 M22  0.3+  0.6+    240702 M28 (1.4-  2.9+)   240702 L47  0.7+  1.9-
240702 M22  0.4+  0.8+    240702 M21  0.3-  0.3+    240702 J57  0.1+  0.8+
240702 M22  0.7-  0.1+    240702 M28  0.0   0.4-    240702 L47  0.4+  1.6-
240702 M22  0.0   0.3+    240702 M21  0.1+  0.3+    240702 C40  0.3+  0.5+
240702 M22  0.1+  0.2+    240702 G02 (0.6+  1.2+)   240702 C40  0.2+  0.7+
240702 M22  0.1-  1.5+    240702 C40  0.1+  0.3-    240702 C40  0.2+  0.7+
240702 X09  0.3-  0.8+    240702 G02 (1.3+  0.7+)   240702 958  0.3-  0.0
240702 X09  0.2-  0.5+    240702 L47  0.3-  0.1-    240702 958  0.3-  0.3+
240702 Y05  0.1-  0.0     240702 C40  0.4+  1.1-    240702 958  0.2-  0.4-
240702 Y05  0.1+  0.0     240702 L47  0.2+  2.6-    240703 807  0.0   0.5+
240702 Y05  0.1+  0.0     240702 G02  1.1+  0.2-    240703 807  0.0   0.8+
240702 H36  0.4-  0.5+    240702 L47  0.7+  1.8-    240703 807  0.1+  0.7+
240702 H36  0.2-  0.3+    240702 C40  0.4+  0.3-    240703 807  0.2+  0.6+
240702 H36  0.1-  0.2+    240702 104  0.6-  0.2-    240703 807  0.1+  0.4+
240702 474  0.1+  0.2-    240702 104  0.3+  0.0     240703 U55  0.4+  0.1+
240702 474  0.0   0.2-    240702 104  0.6-  0.0     240703 U55  0.0   0.0
240702 474  0.2+  0.3-    240702 L47  0.3-  0.9-    240703 U55  0.2-  0.6-
Ephemeris:
2024 NE                  a,e,i = 1.42, 0.39, 23                  q = 0.8738
Date    TT    R. A. (2000) Decl.     Delta      r    Elong.  Phase     V
2024 06 03    19 20 02.9 -64 03 26   0.2909  1.2251   131.0    38.7    23.4
...
2024 06 18    19 16 11.0 -59 54 05   0.1496  1.1351   140.3    34.9    21.6
...
2024 06 26    18 57 29.6 -48 32 08   0.07939 1.0883   153.7    24.4    19.9
...
2024 07 02    18 26 57.7 -10 57 25   0.03847 1.0542   167.2    12.3    17.8
2024 07 03    18 19 25.7 +02 11 03   0.03550 1.0487   153.9    25.3    18.1
2024 07 04    18 10 52.9 +16 45 04   0.03472 1.0432   139.1    39.7    18.4
...
2024 07 10    16 45 29.5 +70 40 53   0.06533 1.0112    83.3    93.0    21.5
...
2024 07 18    12 35 38.2 +81 54 43   0.1308  0.9717    66.6   106.3    23.5
...
2024 08 02    09 15 11.3 +77 19 30   0.2575  0.9122    59.6   106.3    24.9
M. P. C. Staff               (C) Copyright 2024 MPC           M.P.E.C. 2024-N26
    
    
More information about the Iaude
mailing list